FW1230 Myakka City FL US current weather conditions

sailwx.info

Wind from 201 at 2 knots gusting 6

Air temperature 27.2° C
Dewpoint 18.5° C

Last reported at 2019-Dec-08 19:49 UTC.
Time now 2019-Dec-08 20:35 UTC

Location: N 27°20' W 082°14'.
View on Google Maps.

See reports from other nearby stations

  
Tides and Currents Weather Stations Pressure Air Temp Water Temp Dewpoint Dewpoint Depression Visibility Wind Speed Wind Dir Waves Ship Positions
date/time (UTC)wind fromknots sea level pressurealtimeterstation pressurevisibilityair tempwater tempwave heightnotes
2019-Dec-08 19:49 201 2 gusting 6 27.2
2019-Dec-08 19:29 180 2 gusting 5 26.7
2019-Dec-08 19:13 149 1 gusting 6 26.7
2019-Dec-08 18:54 171 2 gusting 7 26.7
2019-Dec-08 18:39 176 1 gusting 6 26.7
2019-Dec-08 18:19 223 4 gusting 9 26.7
2019-Dec-08 18:04 167 4 gusting 7 26.1
2019-Dec-08 17:49 191 5 gusting 10 26.1
2019-Dec-08 17:33 132 4 gusting 9 25.6
2019-Dec-08 17:14 153 5 gusting 8 25.0
2019-Dec-08 16:54 177 6 gusting 10 25.0
2019-Dec-08 16:34 157 4 gusting 9 24.4
2019-Dec-08 16:19 126 5 gusting 7 23.9
2019-Dec-08 16:04 144 4 gusting 8 23.3
2019-Dec-08 15:49 133 5 gusting 7 22.8
2019-Dec-08 15:29 111 4 gusting 8 22.2
2019-Dec-08 15:09 126 3 gusting 6 21.7
2019-Dec-08 14:53 134 2 gusting 6 20.6
2019-Dec-08 14:34 084 3 gusting 6 19.4
2019-Dec-08 14:14 100 2 gusting 6 17.8
2019-Dec-08 13:54 081 1 gusting 3 16.7
2019-Dec-08 13:39 072 1 gusting 4 15.6
2019-Dec-08 13:23 081 1 gusting 4 15.0
2019-Dec-08 13:00 041 0 gusting 4 13.3
2019-Dec-08 12:40 041 11.1
2019-Dec-08 12:25 041 10.6
2019-Dec-08 12:09 041 10.0
2019-Dec-08 11:50 041 10.0
2019-Dec-08 11:29 041 10.6
2019-Dec-08 11:14 041 10.6
2019-Dec-08 10:55 041 10.0
2019-Dec-08 10:40 041 10.0
2019-Dec-08 10:25 041 10.6
2019-Dec-08 10:09 041 10.6
2019-Dec-08 09:50 041 10.6
2019-Dec-08 09:29 041 11.1
2019-Dec-08 09:10 041 10.6
2019-Dec-08 08:55 041 10.6
2019-Dec-08 08:39 041 10.6
2019-Dec-08 08:20 041 10.6
2019-Dec-08 08:04 041 10.6
2019-Dec-08 07:49 041 10.0
2019-Dec-08 07:34 041 0 gusting 1 10.6
2019-Dec-08 07:15 041 10.6
2019-Dec-08 06:55 041 11.1
2019-Dec-08 06:35 041 11.1
2019-Dec-08 06:19 041 11.1
2019-Dec-08 06:00 041 11.1
2019-Dec-08 05:44 041 11.7
2019-Dec-08 05:25 041 11.7
2019-Dec-08 05:09 041 11.7
2019-Dec-08 04:49 041 11.7
2019-Dec-08 04:30 041 12.2
2019-Dec-08 04:10 041 12.2
2019-Dec-08 03:50 041 0 gusting 1 12.8
2019-Dec-08 03:34 041 12.8
2019-Dec-08 03:15 041 13.3
2019-Dec-08 03:00 041 12.8
2019-Dec-08 02:44 041 12.8
2019-Dec-08 02:25 041 13.3
2019-Dec-08 02:10 041 13.9
2019-Dec-08 01:55 041 14.4
2019-Dec-08 01:39 041 0 gusting 1 15.0
2019-Dec-08 01:21 041 0 gusting 2 16.7
2019-Dec-08 01:04 041 0 gusting 1 17.2
2019-Dec-08 00:44 041 0 gusting 2 18.3
2019-Dec-08 00:24 041 0 gusting 2 18.9
2019-Dec-08 00:07 041 1 gusting 4 18.9
2019-Dec-07 22:50 041 0 gusting 1 20.0
2019-Dec-07 22:30 041 0 gusting 1 20.6
2019-Dec-07 22:14 041 0 gusting 1 21.1
2019-Dec-07 21:58 041 22.8
2019-Dec-07 21:40 041 22.8
2019-Dec-07 21:19 041 23.3
2019-Dec-07 20:59 041 1 gusting 2 23.3
2019-Dec-07 20:44 041 0 gusting 4 23.3
2019-Dec-07 20:25 057 2 gusting 4 23.3
2019-Dec-07 20:04 105 0 gusting 2 23.3
2019-Dec-07 19:49 065 0 gusting 3 23.3
2019-Dec-07 19:30 076 2 gusting 5 23.3
2019-Dec-07 19:14 066 3 gusting 6 23.3
2019-Dec-07 18:59 060 3 gusting 6 23.3
2019-Dec-07 18:40 093 3 gusting 7 22.8
2019-Dec-07 18:20 034 2 gusting 6 22.8
2019-Dec-07 18:04 072 0 gusting 6 22.2
2019-Dec-07 17:45 055 0 gusting 2 22.2
2019-Dec-07 17:30 053 3 gusting 5 21.7
2019-Dec-07 17:14 042 3 gusting 6 21.7
2019-Dec-07 16:55 057 4 gusting 6 21.1
2019-Dec-07 16:39 108 2 gusting 6 21.1
2019-Dec-07 16:24 047 4 gusting 6 20.6
2019-Dec-07 16:09 063 3 gusting 6 20.0
2019-Dec-07 15:50 120 0 gusting 3 18.9
2019-Dec-07 15:34 161 18.3
2019-Dec-07 15:19 130 1 gusting 3 17.8
2019-Dec-07 15:00 109 1 gusting 6 17.2
2019-Dec-07 14:39 091 0 gusting 3 16.1
2019-Dec-07 14:20 066 2 gusting 5 15.0
2019-Dec-07 14:05 088 3 gusting 7 14.4
2019-Dec-07 13:45 076 2 gusting 5 12.8
2019-Dec-07 13:20 319 0 gusting 1 10.6
2019-Dec-07 13:01 319 8.3
2019-Dec-07 12:04 319 6.7
2019-Dec-07 11:49 319 6.7
2019-Dec-07 11:30 319 7.2
2019-Dec-07 10:57 319 0 gusting 1 7.2
2019-Dec-07 09:19 319 0 gusting 1 7.2
2019-Dec-07 09:04 319 0 gusting 1 7.2
2019-Dec-07 08:44 319 7.8
2019-Dec-07 08:29 319 7.2
2019-Dec-07 08:10 319 7.8
2019-Dec-07 07:39 319 8.3
2019-Dec-07 06:59 319 0 gusting 1 7.8
2019-Dec-07 06:42 319 7.8
2019-Dec-07 05:39 319 0 gusting 1 7.8
2019-Dec-07 05:23 319 7.2
2019-Dec-07 04:54 319 0 gusting 1 8.3
2019-Dec-07 04:39 319 8.9
2019-Dec-07 04:23 319 0 gusting 1 8.9
2019-Dec-07 03:51 319 8.9
2019-Dec-07 03:34 319 9.4
2019-Dec-07 03:04 319 9.4
2019-Dec-07 02:49 319 9.4
2019-Dec-07 02:34 319 0 gusting 2 9.4
2019-Dec-07 02:17 319 10.0
2019-Dec-07 01:54 319 10.6
2019-Dec-07 01:34 319 0 gusting 1 11.1
2019-Dec-07 01:15 319 0 gusting 1 11.1
2019-Dec-07 00:49 319 12.2
2019-Dec-07 00:29 319 0 gusting 1 12.2
2019-Dec-07 00:14 319 0 gusting 1 12.8
2019-Dec-06 23:59 319 13.9
2019-Dec-06 23:39 319 14.4
2019-Dec-06 23:24 319 15.6
2019-Dec-06 23:09 319 16.7
2019-Dec-06 22:49 319 0 gusting 3 18.3
2019-Dec-06 22:29 319 1 gusting 3 20.0
2019-Dec-06 22:09 319 2 gusting 5 21.1
2019-Dec-06 21:49 309 3 gusting 6 22.2
2019-Dec-06 21:29 311 3 gusting 7 22.8
2019-Dec-06 21:09 320 2 gusting 7 23.3
2019-Dec-06 20:49 310 3 gusting 5 23.3
2019-Dec-06 20:29 232 2 gusting 7 23.3
2019-Dec-06 20:09 225 3 gusting 6 23.3